This demonstration page uses our WeatherBlox Daily Observations layout. Learn more.

Hourly Observations for April 1, 2019

Temp ( °F °C ) Dew Point ( °F °C ) Humidity (%) Winds ( mph kmh ) Pressure ( in mb ) Visibility ( mi km ) Precip ( " mm )
12:15 am 00:15 Partly Cloudy 34 1 18 -8 51 51 WNW 24 39 30.24 1024 10 16.09344 0 0
12:35 am 00:35 Mostly Cloudy 34 1 18 -8 51 51 NW 18 30 30.24 1024 10 16.09344 0 0
12:55 am 00:55 Cloudy 34 1 18 -8 51 51 NW 15 24 30.24 1024 10 16.09344 0 0
1:15 am 01:15 Cloudy 34 1 18 -8 51 51 NW 17 28 30.24 1024 10 16.09344 0 0
1:35 am 01:35 Mostly Cloudy 34 1 18 -8 51 51 NW 15 24 30.27 1025 10 16.09344 0 0
1:55 am 01:55 Mostly Cloudy 34 1 18 -8 51 51 NW 13 20 30.27 1025 10 16.09344 0 0
2:15 am 02:15 Cloudy 34 1 18 -8 51 51 NNW 20 31 30.27 1025 10 16.09344 0 0
2:35 am 02:35 Mostly Cloudy 34 1 18 -8 51 51 NW 12 19 30.27 1025 10 16.09344 0 0
2:55 am 02:55 Partly Cloudy 34 1 18 -8 51 51 NNW 16 26 30.27 1025 10 16.09344 0 0
3:15 am 03:15 Mostly Cloudy 34 1 18 -8 51 51 NNW 9 15 30.27 1025 10 16.09344 0 0
3:35 am 03:35 Partly Cloudy 32 0 18 -8 55 55 NNW 9 15 30.27 1025 10 16.09344 0 0
3:55 am 03:55 Mostly Cloudy 34 1 18 -8 51 51 NNW 8 13 30.27 1025 10 16.09344 0 0
4:15 am 04:15 Cloudy 34 1 19 -7 56 56 NW 10 17 30.27 1025 10 16.09344 0 0
4:35 am 04:35 Cloudy 32 0 19 -7 60 60 NW 9 15 30.27 1025 10 16.09344 0 0
4:55 am 04:55 Cloudy 32 0 21 -6 64 64 NNW 10 17 30.27 1025 10 16.09344 0 0
5:15 am 05:15 Cloudy 32 0 21 -6 64 64 NNW 9 15 30.27 1025 10 16.09344 0 0
5:35 am 05:35 Mostly Cloudy 32 0 21 -6 64 64 NW 8 13 30.3 1026 10 16.09344 0 0
5:55 am 05:55 Partly Cloudy 32 0 21 -6 64 64 NNW 3 6 30.3 1026 10 16.09344 0 0
6:15 am 06:15 Cloudy 32 0 21 -6 64 64 Calm 30.3 1026 10 16.09344 0 0
6:35 am 06:35 Cloudy 32 0 21 -6 64 64 Calm 30.3 1026 10 16.09344 0 0
6:55 am 06:55 Mostly Cloudy 30 -1 21 -6 69 69 WNW 5 7 30.3 1026 10 16.09344 0 0
7:15 am 07:15 Partly Cloudy 30 -1 21 -6 69 69 NW 8 13 30.33 1027 10 16.09344 0 0
7:35 am 07:35 Sunny 32 0 21 -6 64 64 NW 3 6 30.33 1027 10 16.09344 0 0
7:55 am 07:55 Sunny 32 0 23 -5 69 69 NW 3 6 30.33 1027 10 16.09344 0 0
8:15 am 08:15 Sunny 34 1 23 -5 65 65 NW 8 13 30.36 1028 10 16.09344 0 0
8:35 am 08:35 Partly Cloudy 36 2 23 -5 60 60 NNW 16 26 30.36 1028 10 16.09344 0 0
8:55 am 08:55 Partly Cloudy 36 2 23 -5 60 60 NNW 14 22 30.36 1028 10 16.09344 0 0
9:15 am 09:15 Partly Cloudy 36 2 21 -6 56 56 N 16 26 30.39 1029 10 16.09344 0 0
9:35 am 09:35 Partly Cloudy 36 2 19 -7 52 52 N 16 26 30.39 1029 10 16.09344 0 0
9:55 am 09:55 Mostly Cloudy 37 3 19 -7 48 48 NNW 18 30 30.39 1029 10 16.09344 0 0
10:15 am 10:15 Partly Cloudy 37 3 19 -7 48 48 NNW 13 20 30.42 1030 10 16.09344 0 0
10:35 am 10:35 Sunny 37 3 19 -7 48 48 N 16 26 30.39 1029 10 16.09344 0 0
10:55 am 10:55 Sunny 39 4 19 -7 45 45 N 14 22 30.42 1030 10 16.09344 0 0
11:15 am 11:15 Sunny 41 5 19 -7 42 42 NNW 16 26 30.42 1030 10 16.09344 0 0
11:35 am 11:35 Sunny 41 5 21 -6 45 45 N 13 20 30.39 1029 10 16.09344 0 0
11:55 am 11:55 Sunny 41 5 21 -6 45 45 NW 17 28 30.39 1029 10 16.09344 0 0
12:15 pm 12:15 Sunny 43 6 21 -6 42 42 NW 13 20 30.39 1029 10 16.09344 0 0
12:35 pm 12:35 Sunny 43 6 21 -6 42 42 NW 6 9 30.39 1029 10 16.09344 0 0
12:55 pm 12:55 Sunny 43 6 19 -7 39 39 N 12 19 30.39 1029 10 16.09344 0 0
1:15 pm 13:15 Sunny 43 6 19 -7 39 39 NW 12 19 30.39 1029 10 16.09344 0 0
1:35 pm 13:35 Sunny 45 7 21 -6 39 39 N 12 19 30.36 1028 10 16.09344 0 0
1:55 pm 13:55 Sunny 45 7 19 -7 37 37 N 10 17 30.36 1028 10 16.09344 0 0
2:15 pm 14:15 Sunny 46 8 21 -6 37 37 NW 12 19 30.36 1028 10 16.09344 0 0
2:35 pm 14:35 Sunny 46 8 21 -6 37 37 N 12 19 30.36 1028 10 16.09344 0 0
2:55 pm 14:55 Sunny 46 8 21 -6 37 37 WNW 8 13 30.36 1028 10 16.09344 0 0
3:15 pm 15:15 Sunny 46 8 21 -6 37 37 WNW 8 13 30.36 1028 10 16.09344 0 0
3:35 pm 15:35 Sunny 48 9 21 -6 34 34 WNW 9 15 30.36 1028 10 16.09344 0 0
3:55 pm 15:55 Sunny 48 9 19 -7 32 32 N 7 11 30.36 1028 10 16.09344 0 0
4:15 pm 16:15 Sunny 48 9 21 -6 34 34 NNW 7 11 30.33 1027 10 16.09344 0 0
4:35 pm 16:35 Sunny 48 9 19 -7 32 32 NW 6 9 30.33 1027 10 16.09344 0 0
4:55 pm 16:55 Sunny 50 10 21 -6 32 32 NNW 6 9 30.33 1027 10 16.09344 0 0
5:15 pm 17:15 Sunny 48 9 19 -7 32 32 Calm 30.33 1027 10 16.09344 0 0
5:35 pm 17:35 Sunny 50 10 21 -6 32 32 NW 8 13 30.33 1027 10 16.09344 0 0
5:55 pm 17:55 Sunny 48 9 19 -7 32 32 Calm 30.33 1027 10 16.09344 0 0
6:15 pm 18:15 Sunny 48 9 19 -7 32 32 NNW 7 11 30.33 1027 10 16.09344 0 0
6:35 pm 18:35 Sunny 48 9 18 -8 29 29 Calm 30.33 1027 10 16.09344 0 0
6:55 pm 18:55 Sunny 46 8 19 -7 34 34 Calm 30.33 1027 10 16.09344 0 0
7:15 pm 19:15 Sunny 46 8 19 -7 34 34 Calm 30.36 1028 10 16.09344 0 0
7:35 pm 19:35 Clear 46 8 18 -8 32 32 Calm 30.36 1028 10 16.09344 0 0
7:55 pm 19:55 Clear 46 8 19 -7 34 34 Calm 30.36 1028 10 16.09344 0 0
8:15 pm 20:15 Clear 45 7 19 -7 37 37 Calm 30.36 1028 10 16.09344 0 0
8:35 pm 20:35 Clear 45 7 19 -7 37 37 Calm 30.36 1028 10 16.09344 0 0
8:55 pm 20:55 Clear 43 6 19 -7 39 39 E 3 6 30.39 1029 10 16.09344 0 0
9:15 pm 21:15 Clear 45 7 19 -7 37 37 SE 5 7 30.39 1029 10 16.09344 0 0
9:35 pm 21:35 Clear 43 6 21 -6 42 42 ESE 3 6 30.39 1029 10 16.09344 0 0
9:55 pm 21:55 Clear 39 4 25 -4 56 56 Calm 30.39 1029 10 16.09344 0 0
10:15 pm 22:15 Clear 37 3 28 -2 70 70 Calm 30.39 1029 10 16.09344 0 0
10:35 pm 22:35 Clear 36 2 28 -2 75 75 Calm 30.39 1029 10 16.09344 0 0
10:55 pm 22:55 Clear 36 2 28 -2 75 75 Calm 30.39 1029 10 16.09344 0 0
11:15 pm 23:15 Clear 34 1 28 -2 81 81 Calm 30.39 1029 10 16.09344 0 0
11:35 pm 23:35 Clear 36 2 28 -2 75 75 Calm 30.39 1029 10 16.09344 0 0
11:55 pm 23:55 Clear 34 1 28 -2 81 81 Calm 30.39 1029 10 16.09344 0 0

Powered by AerisWeather